Home > Time Zones > World Clock > Weather > Germany > Ulm > Past weeks

Flag for Germany Weather past 2 weeks in Ulm, Baden-Württemberg, Germany

Now
55 °F

Cool.


Feels Like: 55 °F
Forecast: 45 / 62 °F
Wind: 5 mph from Southwest

Location: Laupheim Airport

Current Time: Aug 23, 2014 at 3:43:09 AM

Latest Report: Aug 23, 2014 at 2:20 AM


Visibility: N/A

Pressure: 30.01 "Hg

Humidity: 77%

Dew point: 48 °F

Location of UlmLocation

Historic Weather in Ulm — Graph

°F

Ulm temperature yesterday

Maximum temperature yesterday: 66 °F (at 3:20 PM)
Minimum temperature yesterday: 45 °F (at 6:20 AM)
Average temperature yesterday: 57 °F

Past Weeks' High & Low Weather Summary

 TemperatureHumidityPressure
High81 °F (Aug 10, 2:20 PM)100% (Aug 8, 2:20 AM)30.18 "Hg (Aug 8, 2:20 AM)
Low45 °F (Aug 22, 6:20 AM)43% (Aug 19, 5:20 PM)29.68 "Hg (Aug 13, 1:20 PM)
Average60 °F77%29.98 "Hg
* Reported Aug 8 2:20 AM — Aug 23 2:20 AM, Ulm, Weather by CustomWeather, © 2014

Note: Actual official high and low records may vary slightly from our data, if they occured in-between our weather recording intervals... More about our weather records

Advertising

Ulm weather history for previous 24 hours

 ConditionsComfort  
Time TempWeatherWind HumidityBarometerVisibility
2:20 AM
Aug 23
55 °FCool.5 mph77%30.01 "HgN/A
1:20 AM57 °FCool.5 mph72%30.01 "HgN/A
12:20 AM59 °FCool.3 mph68%30.01 "HgN/A
11:20 PM
Aug 22
59 °FCool.5 mph68%30.01 "HgN/A
10:20 PM59 °FCool.3 mph72%30.01 "HgN/A
9:20 PM61 °FRefreshingly cool.2 mph59%30.01 "HgN/A
8:20 PM63 °FMild.1 mph52%29.98 "HgN/A
7:20 PM64 °FPassing clouds.3 mph49%29.98 "HgN/A
6:20 PM66 °FPassing clouds.6 mph46%29.98 "HgN/A
5:20 PM66 °FScattered clouds.9 mph46%29.98 "HgN/A
4:20 PM66 °FPassing clouds.9 mph49%29.98 "HgN/A
3:20 PM66 °FScattered clouds.14 mph49%29.98 "HgN/A
2:20 PM64 °FBroken clouds.5 mph49%30.01 "HgN/A
1:20 PM64 °FScattered clouds.6 mph49%30.01 "HgN/A
12:20 PM63 °FScattered clouds.6 mph59%30.01 "HgN/A
11:20 AM61 °FScattered clouds.2 mph59%30.04 "HgN/A
10:20 AM57 °FScattered clouds.2 mph67%30.04 "HgN/A
9:20 AM52 °FScattered clouds.5 mph88%30.04 "HgN/A
8:20 AM48 °FScattered clouds.2 mph87%30.04 "HgN/A
7:20 AM48 °FPassing clouds.1 mph87%30.04 "HgN/A
6:20 AM45 °FPassing clouds.5 mph100%30.01 "HgN/A
5:20 AM46 °FPassing clouds.3 mph93%30.01 "HgN/A
4:20 AM46 °FPassing clouds.3 mph93%30.04 "HgN/A
3:20 AM48 °FPassing clouds.2 mph94%30.04 "HgN/A
Weather by CustomWeather, © 2014

See weather overviewHow to use our weather pages